{"data":{"norad_id":62675,"epoch":"2026-05-24T17:34:42.809952Z","epoch_age_seconds":105061,"freshness":"FRESH","line1":"1 62675U 25009BU  26144.73243993  .00008624  00000+0  31057-3 0  9997","line2":"2 62675  97.4014 226.5907 0005614  59.6157 300.5637 15.28805565 75318","mean_motion":15.28805565,"eccentricity":0.0005614,"inclination_deg":97.4014,"raan_deg":226.5907,"arg_perigee_deg":59.6157,"mean_anomaly_deg":300.5637,"bstar":0.00031057,"rev_number":7531,"period_min":94.191179896706,"perigee_km":475.53195428219,"apogee_km":483.23157635188,"semimajor_km":6857.518765317,"source":"CELESTRAK","updated_at":"2026-05-25T13:38:13.342571Z"}}